Location: Eldred Sherwood Park Lake Dam
(42.9416°N, 93.5655°W)
Time: 08:32:57
(UTC+00:00)

Vanguard 2 Rocket - Pass Details

Date: 14 November 2024
Orbit: 554 x 3296 km, 32.9° (Epoch: 06 December)

Event Time Altitude Azimuth Distance (km) Brightness Sun altitude
Rises 12:25:26 0° 221° (SW) 5,326 10.6 -7.7°
Reaches altitude 10° 12:28:43 10° 214° (SW) 4,662 10.4 -7.2°
Maximum altitude 12:41:43 43° 149° (SSE) 3,670 10.5 -4.9°
Drops below altitude 10° 12:59:21 10° 88° (E) 6,249 12.4 -2.0°
Sets 13:04:36 0° 83° (E) 7,243 12.6 -1.1°
